Location: Unspecified
(0.0000°N, 0.0000°E)
Time: 07:56:35
(UTC+00:00)

STARLINK-2758 - Pass Details

Date: 12 June 2021
Orbit: 349 x 351 km, 53.1° (Epoch: 20 June)

Event Time Altitude Azimuth Distance (km) Brightness Sun altitude
Exits shadow 05:01:08 10° 186° (S) 1,280 5.2 -13.5°
Maximum altitude 05:03:38 28° 124° (SE) 687 4.5 -12.9°
Drops below altitude 10° 05:06:11 10° 62° (ENE) 1,298 7.1 -12.3°
Sets 05:08:19 0° 50° (NE) 2,135 8.3 -11.8°
